Tracking 19847 objects as of 17-Sep-2019
HD Live streaming from Space Station
objects crossing your sky now

SL-14 DEB

Track SL-14 DEB now!
10-day predictions


NORAD ID: 39980
Int'l Code: 1987-068DG
Perigee: 355.3 km
Apogee: 376.1 km
Inclination: 82.5 °
Period: 91.7 minutes
Semi major axis: 6736 km
RCS: Unknown
Launch date: August 18, 1987
Source: Commonwealth of Independent States (former USSR) (CIS)
Launch site: PLESETSK MISSILE AND SPACE COMPLEX (PKMTR)

Note: This is SATELLITE DEBRIS
aabbcc
Your satellite tracking list
Your tracking list is empty




NASA's NSSDC Master Catalog

Two Line Element Set (TLE):
1 39980U 87068DG  19238.66062113  .00408703  00000-0  32179-2 0  9992
2 39980  82.4798 220.6657 0015436 142.5427 217.6914 15.70123954306636
Source of the keplerian elements: AFSPC